AFL7002 UWKD-UMKK

Flight info

Callsign AFL7002
Flight time N/A
Altitude 38000
Route APTAR1G APTAR T787 OTKOL T784 ROKUR P164 ODATI T561 ATLUM DCT PISIS DCT ARANS/N0452F380 DCT PIDIN DCT PISIM DCT PIRUX DCT PIVAX/N0448F390 DCT GARSO DCT AGONA DCT TURIP TURIP3F
Aircraft A320/M-SDE3FGHIRWY/LB1

Departure

Time 2026-05-07 19:18
Airport Kazan International Airport (UWKD)

Arrival

Time N/A
Airport Khrabrovo Airport (UMKK)
Time Latitude Longitude Altitude Speed Heading
2026-05-07 18:50 55.60710 49.29597 416 ft 0 kts 34°
2026-05-07 19:08 55.60719 49.29608 409 ft 4 kts 34°
2026-05-07 19:08 55.60756 49.29615 411 ft 5 kts 340°
2026-05-07 19:09 55.60779 49.29567 413 ft 6 kts 306°
2026-05-07 19:09 55.60813 49.29478 414 ft 8 kts 296°
2026-05-07 19:09 55.60803 49.29416 406 ft 5 kts 218°
2026-05-07 19:09 55.60756 49.29356 416 ft 12 kts 214°
2026-05-07 19:10 55.60667 49.29246 410 ft 19 kts 214°
2026-05-07 19:10 55.60579 49.29062 411 ft 21 kts 257°
2026-05-07 19:10 55.60586 49.28786 409 ft 24 kts 276°
2026-05-07 19:10 55.60604 49.28589 412 ft 16 kts 292°
2026-05-07 19:11 55.60674 49.28405 410 ft 22 kts 303°
2026-05-07 19:11 55.60770 49.28155 411 ft 26 kts 304°
2026-05-07 19:11 55.60876 49.27885 416 ft 28 kts 305°
2026-05-07 19:11 55.60993 49.27584 408 ft 30 kts 304°
2026-05-07 19:12 55.61107 49.27294 411 ft 16 kts 304°
2026-05-07 19:12 55.61170 49.27131 414 ft 14 kts 305°
2026-05-07 19:12 55.61205 49.27043 415 ft 7 kts 305°
2026-05-07 19:12 55.61224 49.26969 412 ft 6 kts 278°
2026-05-07 19:13 55.61208 49.26913 408 ft 5 kts 217°
2026-05-07 19:13 55.61182 49.26883 412 ft 4 kts 213°
2026-05-07 19:13 55.61171 49.26870 411 ft 0 kts 215°
2026-05-07 19:16 55.61165 49.26862 414 ft 3 kts 215°
2026-05-07 19:16 55.61144 49.26835 418 ft 2 kts 216°
2026-05-07 19:16 55.61128 49.26816 415 ft 6 kts 216°
2026-05-07 19:16 55.61096 49.26773 414 ft 6 kts 217°
2026-05-07 19:17 55.61065 49.26751 417 ft 4 kts 173°
2026-05-07 19:17 55.61042 49.26798 410 ft 7 kts 127°
2026-05-07 19:17 55.60937 49.27065 413 ft 65 kts 124°
2026-05-07 19:17 55.60528 49.28131 416 ft 139 kts 124°
2026-05-07 19:18 55.59958 49.29640 950 ft 153 kts 124°
2026-05-07 19:18 55.59354 49.31237 1801 ft 152 kts 124°
2026-05-07 19:18 55.58774 49.32765 2628 ft 152 kts 125°
2026-05-07 19:18 55.58192 49.34310 3380 ft 151 kts 124°
2026-05-07 19:19 55.57587 49.35922 3891 ft 169 kts 124°
2026-05-07 19:19 55.56892 49.37722 4416 ft 185 kts 124°
2026-05-07 19:19 55.56115 49.39710 4860 ft 208 kts 124°
2026-05-07 19:19 55.55036 49.41610 5251 ft 235 kts 152°
2026-05-07 19:20 55.53367 49.42184 5763 ft 261 kts 189°
2026-05-07 19:20 55.51691 49.40811 6428 ft 277 kts 225°
2026-05-07 19:20 55.50688 49.37917 7344 ft 282 kts 253°
2026-05-07 19:20 55.50271 49.34529 7792 ft 283 kts 265°
2026-05-07 19:21 55.50136 49.31073 7955 ft 282 kts 270°
2026-05-07 19:21 55.50081 49.27621 7997 ft 282 kts 270°
2026-05-07 19:21 55.50007 49.24168 8001 ft 281 kts 269°
2026-05-07 19:21 55.49885 49.20719 7993 ft 282 kts 267°
2026-05-07 19:22 55.49718 49.17278 7998 ft 282 kts 266°
2026-05-07 19:22 55.49518 49.13843 7997 ft 282 kts 265°
2026-05-07 19:22 55.49300 49.10418 7989 ft 282 kts 265°
2026-05-07 19:22 55.49071 49.06980 7994 ft 282 kts 265°
2026-05-07 19:23 55.48838 49.03529 8200 ft 286 kts 265°
2026-05-07 19:23 55.48600 49.00048 9347 ft 286 kts 265°
2026-05-07 19:23 55.48364 48.96584 10303 ft 295 kts 265°
2026-05-07 19:23 55.48112 48.92870 10804 ft 315 kts 265°
2026-05-07 19:24 55.47847 48.88997 10953 ft 319 kts 264°
2026-05-07 19:24 55.47574 48.85055 10978 ft 319 kts 264°
2026-05-07 19:24 55.47308 48.81229 10976 ft 319 kts 264°
2026-05-07 19:24 55.47025 48.77356 10978 ft 319 kts 263°
2026-05-07 19:25 55.46910 48.76060 10981 ft 319 kts 262°
2026-05-07 19:26 55.45314 48.58855 10972 ft 319 kts 264°
2026-05-07 19:26 55.45012 48.54561 10968 ft 318 kts 268°
2026-05-07 19:26 55.45081 48.50684 10976 ft 317 kts 276°
2026-05-07 19:27 55.45425 48.42371 10973 ft 317 kts 275°
2026-05-07 19:27 55.45575 48.38497 10972 ft 316 kts 275°
2026-05-07 19:27 55.45721 48.34627 10975 ft 316 kts 275°
2026-05-07 19:27 55.45864 48.30765 10973 ft 316 kts 275°
2026-05-07 19:28 55.46007 48.26896 10974 ft 316 kts 275°
2026-05-07 19:28 55.46149 48.23033 11002 ft 317 kts 275°
2026-05-07 19:28 55.46291 48.19125 11869 ft 320 kts 275°
2026-05-07 19:28 55.46434 48.15205 12920 ft 323 kts 275°
2026-05-07 19:29 55.46577 48.11231 13905 ft 326 kts 275°
2026-05-07 19:29 55.46720 48.07214 14762 ft 330 kts 274°
2026-05-07 19:29 55.46864 48.03150 15622 ft 334 kts 274°
2026-05-07 19:29 55.47008 47.99044 16481 ft 338 kts 274°
2026-05-07 19:30 55.47152 47.94879 17337 ft 342 kts 274°
2026-05-07 19:30 55.47296 47.90675 18179 ft 346 kts 274°
2026-05-07 19:30 55.47441 47.86416 18902 ft 350 kts 274°
2026-05-07 19:30 55.47585 47.82118 19595 ft 354 kts 274°
2026-05-07 19:31 55.47730 47.77770 19877 ft 356 kts 274°
2026-05-07 19:31 55.47872 47.73423 19962 ft 355 kts 274°
2026-05-07 19:31 55.48014 47.69071 19976 ft 355 kts 273°
2026-05-07 19:31 55.48154 47.64726 19977 ft 355 kts 273°
2026-05-07 19:32 55.48292 47.60376 19976 ft 355 kts 273°
2026-05-07 19:32 55.48429 47.56025 19975 ft 355 kts 273°
2026-05-07 19:32 55.48563 47.51712 20303 ft 359 kts 273°
2026-05-07 19:32 55.48698 47.47302 21089 ft 361 kts 273°
2026-05-07 19:33 55.48833 47.42858 21839 ft 365 kts 273°
2026-05-07 19:33 55.48968 47.38368 22575 ft 369 kts 273°
2026-05-07 19:33 55.49103 47.33826 23309 ft 373 kts 273°
2026-05-07 19:33 55.49237 47.29241 23961 ft 377 kts 273°
2026-05-07 19:34 55.49371 47.24598 24590 ft 380 kts 273°
2026-05-07 19:34 55.49502 47.19919 25210 ft 384 kts 273°
2026-05-07 19:34 55.49633 47.15201 25818 ft 387 kts 273°
2026-05-07 19:34 55.49766 47.10442 26397 ft 390 kts 273°
2026-05-07 19:35 55.49899 47.05641 26966 ft 394 kts 273°
2026-05-07 19:35 55.50033 47.00799 27520 ft 397 kts 273°
2026-05-07 19:35 55.50166 46.95916 28067 ft 400 kts 273°
2026-05-07 19:35 55.50315 46.90992 28602 ft 404 kts 275°
2026-05-07 19:36 55.50698 46.86064 29125 ft 407 kts 279°
2026-05-07 19:36 55.51026 46.82803 29462 ft 409 kts 280°
2026-05-07 19:36 55.51500 46.77837 29970 ft 412 kts 278°
2026-05-07 19:36 55.51869 46.72802 30396 ft 415 kts 276°
2026-05-07 19:37 55.52114 46.67707 30825 ft 418 kts 274°
2026-05-07 19:37 55.52263 46.62574 31244 ft 420 kts 272°
2026-05-07 19:37 55.52358 46.57423 31778 ft 419 kts 271°
2026-05-07 19:37 55.52434 46.52295 32381 ft 417 kts 271°
2026-05-07 19:38 55.52518 46.47189 32977 ft 415 kts 272°
2026-05-07 19:38 55.52626 46.42119 33584 ft 413 kts 273°
2026-05-07 19:38 55.52800 46.37058 34146 ft 411 kts 274°
2026-05-07 19:38 55.53021 46.32031 34641 ft 410 kts 275°
2026-05-07 19:39 55.53260 46.27023 35091 ft 409 kts 275°
2026-05-07 19:39 55.53497 46.22022 35523 ft 409 kts 275°
2026-05-07 19:39 55.53723 46.17025 35948 ft 408 kts 274°
2026-05-07 19:39 55.53935 46.12024 36368 ft 408 kts 274°
2026-05-07 19:40 55.54135 46.07033 36777 ft 408 kts 274°
2026-05-07 19:40 55.54327 46.02038 37179 ft 407 kts 274°
2026-05-07 19:40 55.54516 45.97052 37573 ft 407 kts 274°
2026-05-07 19:40 55.54704 45.92068 37896 ft 408 kts 274°
2026-05-07 19:41 55.55077 45.82108 37952 ft 405 kts 274°
2026-05-07 19:41 55.55453 45.72016 37949 ft 419 kts 274°
2026-05-07 19:42 55.55832 45.61635 37947 ft 426 kts 273°
2026-05-07 19:42 55.56202 45.51173 37943 ft 427 kts 273°
2026-05-07 19:43 55.56562 45.40707 37942 ft 427 kts 273°
2026-05-07 19:43 55.56912 45.30245 37939 ft 426 kts 273°
2026-05-07 19:44 55.57253 45.19789 37943 ft 426 kts 273°
2026-05-07 19:44 55.57587 45.09318 37945 ft 426 kts 273°
2026-05-07 19:45 55.57908 44.98938 37946 ft 426 kts 273°
2026-05-07 19:45 55.58219 44.88470 37944 ft 426 kts 273°
2026-05-07 19:46 55.58528 44.78028 37942 ft 425 kts 273°
2026-05-07 19:46 55.58831 44.67581 37937 ft 425 kts 272°
2026-05-07 19:47 55.59123 44.57151 37931 ft 425 kts 272°
2026-05-07 19:47 55.59404 44.46720 37927 ft 424 kts 272°
2026-05-07 19:48 55.59676 44.36295 37930 ft 424 kts 272°
2026-05-07 19:48 55.59940 44.25873 37924 ft 424 kts 272°
2026-05-07 19:49 55.60195 44.15438 37921 ft 424 kts 272°
2026-05-07 19:49 55.60441 44.05009 37917 ft 424 kts 272°
2026-05-07 19:50 55.60676 43.94651 37919 ft 424 kts 272°
2026-05-07 19:50 55.60928 43.84220 37914 ft 424 kts 276°
2026-05-07 19:51 55.62452 43.74183 37915 ft 425 kts 294°
2026-05-07 19:51 55.65376 43.65053 37913 ft 426 kts 299°
2026-05-07 19:52 55.68348 43.55971 37915 ft 426 kts 298°
2026-05-07 19:52 55.71304 43.46883 37917 ft 426 kts 298°
2026-05-07 19:53 55.74262 43.37784 37913 ft 425 kts 298°
2026-05-07 19:53 55.77216 43.28681 37916 ft 425 kts 298°
2026-05-07 19:54 55.80157 43.19572 37918 ft 425 kts 298°
2026-05-07 19:54 55.83395 43.10779 37919 ft 426 kts 304°
2026-05-07 19:55 55.86818 43.02178 37915 ft 425 kts 303°
2026-05-07 19:55 55.90222 42.93569 37915 ft 425 kts 303°
2026-05-07 19:56 55.93593 42.85010 37916 ft 425 kts 303°
2026-05-07 19:56 55.96986 42.76372 37912 ft 425 kts 303°
2026-05-07 19:57 56.00370 42.67729 37913 ft 424 kts 303°
2026-05-07 19:57 56.03746 42.59071 37914 ft 424 kts 303°
2026-05-07 19:58 56.07106 42.50389 37913 ft 424 kts 302°
2026-05-07 19:58 56.10372 42.41586 37915 ft 424 kts 301°
2026-05-07 19:59 56.13592 42.32726 37920 ft 424 kts 301°
2026-05-07 19:59 56.16818 42.23870 37919 ft 424 kts 301°
2026-05-07 20:00 56.20048 42.15022 37923 ft 424 kts 301°
2026-05-07 20:00 56.23367 42.06274 37928 ft 424 kts 304°
2026-05-07 20:01 56.26996 41.97901 37926 ft 424 kts 307°
2026-05-07 20:01 56.30688 41.89622 37925 ft 424 kts 306°
2026-05-07 20:02 56.34291 41.81315 37933 ft 423 kts 305°
2026-05-07 20:02 56.37866 41.72887 37928 ft 423 kts 305°
2026-05-07 20:03 56.41429 41.64444 37928 ft 422 kts 305°
2026-05-07 20:03 56.44992 41.56013 37940 ft 422 kts 305°
2026-05-07 20:04 56.48549 41.47582 37938 ft 421 kts 305°
2026-05-07 20:04 56.52095 41.39146 37933 ft 421 kts 305°
2026-05-07 20:05 56.55631 41.30688 37944 ft 421 kts 304°
2026-05-07 20:05 56.59157 41.22220 37943 ft 420 kts 304°
2026-05-07 20:06 56.62665 41.13741 37938 ft 419 kts 302°
2026-05-07 20:06 56.65179 41.04390 37933 ft 414 kts 286°
2026-05-07 20:07 56.66916 40.94415 37928 ft 414 kts 286°
2026-05-07 20:07 56.68654 40.84454 37929 ft 414 kts 286°
2026-05-07 20:08 56.70393 40.74469 37929 ft 414 kts 286°
2026-05-07 20:08 56.72121 40.64482 37928 ft 413 kts 286°
2026-05-07 20:09 56.73841 40.54481 37932 ft 413 kts 286°
2026-05-07 20:10 56.76403 40.39473 37936 ft 413 kts 285°
2026-05-07 20:10 56.78100 40.29469 37938 ft 413 kts 285°
2026-05-07 20:11 56.79787 40.19464 37936 ft 412 kts 285°
2026-05-07 20:11 56.81464 40.09466 37934 ft 412 kts 285°
2026-05-07 20:12 56.83121 39.99520 37932 ft 412 kts 285°
2026-05-07 20:12 56.84776 39.89520 37933 ft 411 kts 285°
2026-05-07 20:13 56.86432 39.79524 37930 ft 411 kts 285°
2026-05-07 20:13 56.88085 39.69525 37930 ft 411 kts 285°
2026-05-07 20:14 56.89725 39.59529 37932 ft 410 kts 285°
2026-05-07 20:14 56.91355 39.49525 37928 ft 410 kts 284°
2026-05-07 20:15 56.92975 39.39528 37927 ft 409 kts 284°
2026-05-07 20:15 56.94587 39.29519 37923 ft 410 kts 284°
2026-05-07 20:16 56.96192 39.19502 37920 ft 410 kts 284°
2026-05-07 20:16 56.97792 39.09454 37919 ft 411 kts 284°
2026-05-07 20:17 56.99383 38.99404 37922 ft 411 kts 284°
2026-05-07 20:17 57.00971 38.89323 37919 ft 411 kts 284°
2026-05-07 20:18 57.02551 38.79268 37920 ft 412 kts 284°
2026-05-07 20:18 57.04127 38.69168 37930 ft 412 kts 284°
2026-05-07 20:19 57.05676 38.59156 37928 ft 412 kts 284°
2026-05-07 20:19 57.07249 38.48915 37937 ft 412 kts 284°
2026-05-07 20:20 57.08798 38.38775 37939 ft 412 kts 283°
2026-05-07 20:20 57.10338 38.28632 37939 ft 411 kts 283°
2026-05-07 20:21 57.11868 38.18500 37943 ft 411 kts 283°
2026-05-07 20:21 57.13389 38.08359 37949 ft 411 kts 283°
2026-05-07 20:22 57.14901 37.98216 37949 ft 410 kts 283°
2026-05-07 20:22 57.16403 37.88085 37948 ft 410 kts 283°
2026-05-07 20:23 57.17884 37.78027 37946 ft 410 kts 283°
2026-05-07 20:23 57.19366 37.67874 37950 ft 409 kts 283°
2026-05-07 20:24 57.20905 37.59535 37953 ft 411 kts 289°
2026-05-07 20:24 57.23033 37.49829 37956 ft 411 kts 289°
2026-05-07 20:25 57.25164 37.39967 37962 ft 411 kts 289°
2026-05-07 20:25 57.27270 37.30171 37960 ft 411 kts 289°
2026-05-07 20:26 57.29364 37.20419 37961 ft 410 kts 289°
2026-05-07 20:26 57.31392 37.10551 37960 ft 410 kts 288°
2026-05-07 20:27 57.32759 37.00405 37964 ft 406 kts 275°
2026-05-07 20:27 57.33373 36.90000 37957 ft 407 kts 275°
2026-05-07 20:28 57.34701 36.79828 37955 ft 409 kts 288°
2026-05-07 20:28 57.36745 36.69985 37963 ft 410 kts 289°
2026-05-07 20:29 57.38847 36.60153 37964 ft 410 kts 289°
2026-05-07 20:29 57.40896 36.50304 37976 ft 410 kts 288°
2026-05-07 20:30 57.42906 36.40416 37976 ft 409 kts 288°
2026-05-07 20:30 57.44904 36.30524 37976 ft 408 kts 288°
2026-05-07 20:31 57.46896 36.20639 37978 ft 408 kts 288°
2026-05-07 20:31 57.48866 36.10816 37976 ft 408 kts 288°
2026-05-07 20:32 57.50851 36.00940 37979 ft 407 kts 288°
2026-05-07 20:32 57.52838 35.91058 37984 ft 407 kts 288°
2026-05-07 20:33 57.54813 35.81174 37985 ft 407 kts 288°
2026-05-07 20:33 57.56774 35.71297 37987 ft 406 kts 288°
2026-05-07 20:34 57.58722 35.61415 37991 ft 406 kts 288°
2026-05-07 20:34 57.60661 35.51530 37992 ft 406 kts 288°
2026-05-07 20:35 57.62656 35.41745 37990 ft 406 kts 288°